SCP
1 1 1 1 1 0 0 0 0 0 0 0 0 0 0 0 0 0 0 1 1 1 1 1 1 1 1 1 1 1 1 1 1 1 1 1 0 0 0 0 0 0 0 0 1 1 1 1 1
1 1 1 1 1 0 0 0 0 0 0 0 0 0 0 0 0 0 0 0 1 1 1 1 1 1 1 1 1 1 1 1 1 1 1 0 0 0 0 0 0 0 0 0 1 1 1 1 1
1 1 1 1 0 0 0 0 0 0 0 0 0 0 0 0 0 0 0 0 0 1 1 0 0 0 0 1 1 1 1 1 1 1 0 0 0 0 0 0 0 0 0 1 1 1 1 1 1
1 1 1 0 0 0 0 0 0 0 0 0 0 0 0 0 0 0 0 0 0 1 0 0 0 0 0 1 1 1 1 1 1 1 1 1 0 0 0 0 0 0 0 0 1 1 1 0 0
1 1 1 0 0 0 0 0 0 0 0 0 0 0 0 0 0 0 0 0 0 0 0 0 0 0 1 1 1 1 1 1 0 0 1 1 1 0 0 0 0 0 0 0 1 1 1 0 0
1 1 0 0 0 0 0 0 0 0 0 0 0 0 0 0 0 0 0 0 0 0 0 0 0 1 1 1 1 1 1 1 0 0 0 1 1 1 0 0 0 0 0 0 0 1 1 0 0
1 1 0 0 0 0 0 0 0 0 0 0 0 0 0 1 1 0 0 0 0 0 0 0 0 0 0 0 0 0 1 0 0 0 1 1 1 1 1 0 0 0 0 0 0 0 0 0 0
1 0 0 0 0 0 0 0 0 0 0 0 0 0 0 1 1 0 0 0 0 0 0 0 0 0 0 0 0 0 0 0 0 0 0 1 1 1 1 0 0 0 0 0 0 0 0 0 0
0 0 0 1 1 0 0 0 0 0 0 0 0 0 1 1 1 0 0 0 0 0 0 0 0 0 0 0 0 0 0 0 0 0 0 1 1 0 0 0 0 0 0 0 0 0 0 0 0
1 0 1 1 1 0 0 0 0 0 0 0 0 1 1 1 1 0 0 0 0 0 0 0 0 0 0 0 0 0 0 0 0 0 0 0 0 0 0 0 0 0 0 0 0 0 0 0 0
1 1 1 1 1 0 0 0 0 0 1 1 1 1 1 1 0 0 0 0 0 0 0 0 0 0 0 0 0 0 0 0 0 0 0 0 0 0 0 0 0 0 0 0 0 0 0 0 0
0 1 1 1 1 0 0 0 0 0 1 1 1 1 1 1 0 0 0 0 0 0 0 0 0 0 0 0 0 0 0 0 0 0 0 0 0 0 0 0 0 0 0 0 0 0 0 0 0
0 0 0 0 0 0 0 0 0 0 1 1 1 1 1 1 1 0 0 0 0 0 0 0 0 0 0 0 0 0 0 0 0 0 0 0 0 0 0 0 0 0 0 0 0 0 0 0 0
0 0 0 0 0 0 0 0 0 0 0 1 1 1 1 1 1 1 0 0 0 0 0 0 0 0 0 0 0 0 0 0 0 0 0 0 0 0 0 0 0 0 0 0 0 0 0 0 0
0 0 0 0 0 0 0 0 0 0 0 0 1 1 1 1 1 1 1 1 0 0 0 0 0 0 0 0 0 0 0 0 0 0 0 0 0 0 0 0 0 0 0 0 0 0 0 0 0
0 0 0 0 0 0 0 0 0 0 0 0 1 1 1 1 1 1 1 1 0 0 0 0 1 0 0 0 0 0 0 0 0 0 0 0 0 0 0 0 0 0 0 0 0 0 0 0 0
0 0 0 0 0 0 0 0 0 0 0 0 1 1 1 1 1 1 1 1 0 0 0 1 1 1 1 1 1 0 0 0 0 0 0 0 0 0 0 0 0 0 0 0 0 0 0 0 0
0 0 0 0 0 0 0 0 0 0 0 0 0 1 1 1 1 1 1 1 1 0 0 1 1 1 1 1 1 1 0 0 1 1 1 0 0 0 0 0 0 0 0 0 0 0 0 0 0
0 0 0 0 0 0 0 0 0 0 0 0 0 0 1 1 1 1 1 1 1 1 1 1 1 1 2 2 2 1 1 1 1 1 1 0 0 0 0 0 0 0 0 0 0 0 0 0 0
0 0 0 0 0 0 0 0 0 0 0 0 0 0 0 1 1 1 1 1 1 1 1 1 1 1 2 2 2 1 1 1 1 1 1 1 0 0 0 0 0 0 0 0 0 0 0 0 0
0 0 0 0 0 0 0 0 0 0 0 0 0 0 0 0 1 1 1 1 1 1 1 1 1 1 1 1 1 1 1 1 1 1 1 1 1 0 0 0 0 1 1 0 0 0 0 0 0
0 0 0 0 0 0 0 0 0 0 0 0 0 0 0 0 1 1 1 1 1 1 1 1 1 1 1 1 1 1 1 1 1 1 1 1 1 1 0 0 0 1 1 1 0 0 0 0 0
0 0 0 0 0 0 0 0 0 0 0 0 0 0 0 0 1 1 1 1 1 1 2 2 2 2 1 1 1 1 1 1 1 1 1 1 1 1 1 0 0 0 1 1 1 0 1 1 1
0 0 0 0 1 0 0 0 0 0 0 0 0 0 1 1 1 1 1 1 1 1 2 2 3 2 2 1 1 1 1 1 1 1 1 1 1 1 1 1 0 0 1 1 1 1 1 1 1
1 1 0 0 1 0 0 0 0 0 0 0 0 0 0 1 1 1 1 1 1 2 2 2 2 2 2 2 1 1 1 1 1 1 1 1 1 1 1 1 1 1 0 1 1 1 1 1 1
1 1 1 0 0 0 0 0 0 0 0 1 0 0 0 1 1 1 2 2 2 2 2 2 2 2 2 1 1 1 1 1 1 1 1 1 1 1 1 1 1 1 0 0 1 1 1 1 1
1 1 1 1 0 0 0 0 0 0 1 1 1 1 1 1 1 1 2 2 2 3 3 2 2 2 1 1 1 1 1 1 1 1 1 1 1 1 1 1 1 1 1 1 1 1 1 1 1
1 1 1 1 1 0 0 0 0 0 1 1 1 1 1 1 1 1 2 2 2 3 3 2 2 2 2 1 1 1 1 1 1 0 0 0 0 0 1 1 1 1 1 1 1 1 1 1 1
1 1 1 1 1 0 0 0 0 1 1 1 1 1 1 1 1 1 1 2 2 3 3 2 2 2 1 1 1 1 1 1 0 0 0 0 0 0 0 1 1 1 1 1 1 1 1 1 1
1 1 1 1 0 0 0 0 0 0 1 1 1 1 1 1 1 1 1 2 2 3 3 2 2 1 1 1 1 1 1 1 0 0 0 0 0 0 0 0 0 1 1 1 1 1 1 1 1
Wind_Speed
7 8 6 2 2 0 5 5 6 7 7 8 8 9 12 11 8 7 2 3 7 9 9 8 8 8 8 8 8 8 9 9 9 9 9 10 10 11 11 11 11 11 11 10 10 10 10 10 10
7 4 3 2 2 2 4 5 7 8 6 5 8 11 12 11 10 7 3 4 7 8 8 8 8 8 9 9 8 8 9 9 9 9 10 10 10 10 11 10 10 10 10 10 10 10 11 10 10
9 6 3 2 2 4 5 6 7 7 7 6 7 11 9 7 8 5 4 5 7 9 9 8 8 8 9 9 9 8 8 9 9 10 10 10 10 10 10 10 9 10 10 10 10 10 10 10 10
5 3 2 0 6 8 6 6 5 6 6 6 8 9 9 8 6 6 5 6 7 9 9 8 8 8 8 8 9 9 9 9 9 10 10 10 10 10 10 9 9 9 10 10 10 10 10 10 9
4 2 1 2 7 7 7 6 6 7 6 7 11 10 9 8 8 8 5 6 7 8 9 9 9 9 8 8 8 9 9 9 9 9 10 10 10 10 9 9 9 10 10 10 10 10 10 9 9
2 2 1 4 7 7 6 5 7 8 7 7 10 10 7 6 7 6 5 5 7 8 9 9 9 9 9 9 9 8 9 9 9 9 9 9 9 9 9 9 9 10 9 9 9 9 9 8 8
2 2 1 5 6 5 5 5 6 6 7 6 6 9 7 6 5 4 5 6 6 6 7 8 8 8 9 9 9 8 8 8 8 8 8 8 8 8 9 9 9 9 9 9 8 8 8 7 7
2 2 2 4 6 5 4 4 6 7 6 5 5 7 6 6 5 5 5 5 5 4 6 6 6 7 7 7 8 8 7 7 7 6 6 6 6 7 8 8 8 9 8 8 7 6 5 6 6
2 1 2 4 5 5 5 5 5 6 7 7 9 10 10 9 7 6 5 5 4 5 4 5 4 5 6 7 7 6 7 6 6 5 6 5 3 4 5 7 8 7 6 5 5 4 4 3 3
1 1 4 5 5 6 6 5 5 5 7 8 10 11 10 8 7 6 6 5 5 4 4 3 4 4 4 4 5 3 4 4 3 3 4 3 3 4 5 7 7 5 4 3 2 1 1 0 1
2 3 5 7 7 6 6 5 5 5 5 6 9 9 8 7 6 5 6 4 5 5 4 4 4 4 4 3 3 2 1 2 2 2 3 3 4 3 3 3 3 2 3 1 1 1 1 1 2
5 6 5 6 6 5 5 5 6 6 5 6 8 9 7 6 6 4 5 5 5 5 4 3 4 4 4 4 3 2 2 1 1 1 3 3 2 2 2 2 2 1 1 1 2 2 3 4 4
5 5 5 6 6 6 6 6 6 6 7 7 7 7 6 5 6 5 3 5 6 5 4 3 3 4 5 4 1 2 3 2 2 1 2 4 2 2 2 2 2 2 2 2 2 3 4 5 5
6 6 5 4 5 6 6 5 5 5 7 7 6 5 5 5 6 5 4 3 5 5 4 4 4 5 4 3 2 3 2 2 2 2 2 4 3 2 2 3 2 2 2 2 2 3 3 3 4
6 5 5 4 4 4 3 3 4 6 6 6 6 5 5 5 5 5 4 3 4 4 5 5 4 4 4 4 3 3 2 3 2 2 2 4 4 3 2 2 2 2 2 3 3 4 3 3 3
5 3 3 4 4 4 2 2 5 6 6 6 6 6 5 4 5 5 5 4 4 4 5 5 4 4 4 3 3 2 3 3 2 2 2 3 4 4 3 2 2 2 2 2 2 2 3 3 3
5 4 4 4 4 4 3 3 5 6 6 6 6 6 5 5 5 5 5 5 4 3 5 5 4 4 4 3 3 3 3 3 2 2 2 2 3 4 3 2 2 3 3 2 3 3 3 2 2
3 2 2 3 4 3 3 3 6 6 6 5 5 6 5 6 5 5 5 4 4 3 4 5 5 4 4 3 2 2 2 2 2 2 2 2 2 4 4 2 3 3 3 2 2 3 2 2 2
2 2 2 2 3 3 3 4 5 6 5 5 5 5 6 6 5 4 4 4 3 3 3 4 4 4 4 2 2 2 1 1 2 2 2 2 2 3 3 3 3 3 2 2 2 2 2 1 1
4 3 2 2 3 3 4 5 6 7 6 4 5 5 6 6 7 5 4 4 3 3 3 4 3 4 4 3 2 2 2 1 2 1 2 2 2 2 2 3 2 2 2 2 1 2 1 0 0
3 3 2 2 4 6 5 4 6 8 7 5 4 4 5 6 7 7 5 4 3 3 3 3 4 4 4 4 2 2 2 1 2 2 1 1 2 2 2 2 2 2 2 2 1 2 2 1 1
3 2 3 4 4 3 6 3 5 8 8 7 5 4 4 5 6 7 5 4 3 2 3 3 3 4 4 4 3 3 2 2 2 2 2 1 2 3 2 2 1 2 2 1 1 2 1 1 1
3 3 5 6 5 6 7 4 3 8 7 7 6 5 4 5 6 7 6 4 4 3 3 2 3 3 3 4 4 2 2 2 2 2 3 2 2 2 2 2 1 1 2 2 1 2 1 0 0
3 6 8 8 5 6 6 4 2 4 5 6 7 6 5 5 6 7 6 5 4 4 3 2 3 3 3 3 4 3 3 3 2 2 2 2 2 1 2 2 1 1 2 1 1 2 1 0 0
5 4 3 3 4 3 3 2 2 5 4 4 6 6 6 5 6 6 7 6 4 5 4 2 3 3 2 3 4 3 4 3 3 3 2 2 1 1 2 2 1 1 2 1 1 1 1 1 1
5 4 3 4 3 2 2 2 5 7 5 5 5 5 5 5 5 5 6 6 5 5 4 3 3 3 3 3 3 4 3 2 2 2 3 2 2 2 2 2 2 2 2 1 1 1 0 1 1
4 4 5 5 7 4 2 4 6 5 6 5 5 5 5 5 5 5 5 6 5 5 4 4 4 4 4 3 3 3 3 2 2 2 2 2 2 2 3 2 2 2 2 1 1 1 0 1 1
6 6 4 3 4 4 1 3 4 6 5 5 5 4 4 4 5 5 5 5 4 4 3 3 3 4 3 2 2 2 2 2 3 2 2 2 2 2 3 2 2 2 2 2 2 1 1 1 1
4 4 3 3 4 3 2 2 4 5 5 4 4 4 4 4 4 4 5 4 4 4 3 2 2 3 3 3 3 3 2 2 3 2 2 2 2 3 3 3 3 3 3 2 2 2 1 1 1
3 4 3 2 4 3 2 1 3 5 5 4 4 4 4 4 4 4 5 4 4 3 3 2 2 2 2 2 3 3 3 2 2 2 2 2 2 2 3 3 2 2 2 2 3 3 2 2 2
Wind_Direction
252 236 233 242 249 161 64 61 56 49 56 50 50 61 65 52 51 86 125 82 96 102 106 93 83 83 83 84 83 84 84 83 81 81 78 76 76 76 76 76 74 73 71 70 69 67 67 65 63
272 251 250 233 242 103 76 73 68 63 71 65 58 65 70 65 72 94 98 84 95 99 97 90 87 86 84 82 83 86 86 84 83 83 80 79 78 76 76 76 76 75 73 72 69 68 68 64 60
261 252 257 262 31 69 85 80 84 78 64 65 71 61 56 58 73 90 110 112 96 94 94 94 91 89 87 84 84 88 89 88 87 86 82 79 79 78 77 77 77 77 75 73 69 67 67 63 60
256 247 247 59 68 63 83 99 105 97 74 64 84 75 67 47 71 100 113 109 99 100 100 103 97 94 90 90 88 89 90 91 90 88 85 83 82 80 79 79 79 79 76 72 70 68 65 62 58
240 248 229 95 82 79 72 75 85 85 75 66 82 88 81 68 86 101 110 104 103 104 107 109 105 99 94 94 91 90 91 91 91 92 90 87 85 86 84 80 79 79 78 74 69 66 63 62 56
264 250 210 98 92 86 72 64 75 83 84 81 95 98 90 92 89 101 108 105 102 107 113 115 115 110 104 98 97 98 99 96 95 95 94 93 90 88 86 82 80 78 76 75 71 65 62 61 56
268 281 93 108 102 92 82 65 66 87 82 66 87 100 108 101 96 102 98 90 91 103 116 126 133 127 118 109 104 103 105 106 108 107 108 106 104 99 93 86 83 80 76 76 75 70 66 66 61
295 301 94 101 108 94 85 77 73 79 75 65 72 104 121 128 121 108 98 98 104 102 107 121 132 135 132 124 118 119 120 125 130 134 137 132 127 115 105 95 89 87 83 79 80 82 80 72 61
279 316 72 89 105 104 104 89 75 87 89 71 72 97 120 129 125 122 113 107 96 90 94 105 117 118 125 134 134 143 143 150 156 165 174 166 152 131 116 105 107 101 96 89 89 95 89 82 63
170 55 67 77 102 113 107 98 107 105 95 92 91 101 118 132 135 139 138 129 118 112 115 114 118 114 114 117 135 157 148 156 177 163 167 162 125 108 115 123 128 129 127 130 148 153 153 256 89
66 80 74 77 87 108 112 97 88 104 100 113 123 126 133 143 142 140 129 128 125 123 118 118 116 116 111 104 108 97 112 151 163 136 134 116 114 125 124 136 146 158 165 169 150 144 110 91 78
88 76 84 88 88 94 98 92 75 67 88 102 118 133 144 148 136 134 131 130 118 114 111 118 122 115 110 99 103 127 115 99 87 93 112 99 91 100 116 115 121 117 94 65 45 48 53 51 57
109 97 93 99 111 106 98 95 94 93 102 109 123 134 139 137 128 119 105 115 114 114 120 108 98 98 97 90 93 96 88 87 85 64 100 105 100 103 107 102 83 79 76 75 67 58 51 48 42
115 119 118 118 113 113 112 115 112 118 121 122 127 134 144 132 127 120 115 126 122 123 118 104 93 87 99 111 95 87 90 90 80 65 78 103 99 90 89 90 79 73 83 75 81 82 72 66 54
137 141 134 142 151 138 127 109 123 138 137 138 146 147 133 128 129 129 135 121 118 126 114 102 100 94 87 86 89 100 103 95 81 67 58 88 93 87 86 86 82 64 61 65 62 62 58 75 71
166 182 167 163 170 152 184 145 142 151 155 158 157 149 146 146 146 137 129 115 108 117 116 109 107 101 89 82 79 82 87 87 89 75 48 60 81 83 76 79 82 72 65 69 75 68 60 55 57
194 201 168 161 173 166 182 172 161 167 174 169 161 157 162 160 156 141 135 131 121 123 123 124 118 113 106 99 95 73 79 82 82 72 60 54 73 89 83 75 79 73 68 57 63 62 57 62 57
202 183 183 179 168 183 191 187 166 172 183 175 171 165 168 161 155 139 133 131 131 133 122 123 127 122 112 101 94 84 69 77 82 77 70 55 51 78 90 86 79 73 73 60 62 72 54 50 50
212 200 213 162 158 197 206 204 178 177 188 183 175 169 168 159 148 142 141 132 134 131 120 123 136 133 120 104 97 100 93 97 94 94 90 81 76 75 88 89 84 85 88 81 80 89 73 59 74
211 217 208 164 196 226 224 215 188 175 183 185 182 179 172 162 154 147 153 143 155 146 136 129 139 126 118 119 119 122 122 109 106 93 85 81 84 86 89 93 97 94 91 82 78 95 77 350 42
226 242 228 233 232 228 221 221 195 176 171 175 187 180 171 165 160 156 157 152 156 154 155 147 146 132 129 135 116 109 102 96 99 104 85 74 96 94 81 93 96 104 103 114 105 90 81 32 327
272 262 238 237 248 244 223 225 200 177 165 177 183 183 170 162 155 154 158 160 156 151 140 144 137 136 140 135 131 150 158 156 148 140 132 116 100 99 89 93 113 129 114 120 138 93 90 82 346
298 299 261 254 250 257 239 236 197 161 173 179 174 176 172 161 156 156 157 160 158 143 130 142 135 129 125 124 129 146 142 140 133 132 131 116 100 105 104 96 87 119 125 133 119 104 77 100 102
271 268 259 249 251 254 228 221 184 160 171 167 166 170 172 164 154 152 151 150 146 129 122 118 119 113 116 126 139 150 140 135 134 133 138 130 119 117 123 124 125 106 109 125 137 139 127 119 55
250 265 271 229 217 230 193 181 116 103 105 128 151 162 164 160 154 154 153 153 147 136 135 141 138 137 151 161 158 162 158 165 165 161 148 139 130 122 128 114 109 99 90 102 100 113 147 152 125
256 267 286 299 287 261 196 145 111 101 95 108 130 145 152 154 148 147 149 152 151 148 155 163 164 166 173 184 173 166 157 164 151 149 144 149 148 142 135 124 122 104 88 73 75 78 38 116 117
286 283 288 292 289 276 173 131 124 119 118 118 125 135 145 154 145 143 145 148 150 157 165 179 180 172 171 181 185 160 156 153 144 147 145 135 144 153 144 139 142 126 124 121 98 93 32 70 73
265 291 290 288 306 298 235 155 143 140 134 136 134 130 140 142 142 145 147 147 150 150 158 172 172 169 161 157 170 149 149 146 140 154 159 155 158 142 142 148 152 147 152 147 123 84 57 72 65
233 254 274 284 287 298 300 59 79 119 114 117 125 127 131 131 136 139 135 140 136 136 144 162 175 165 162 168 168 158 155 161 163 166 177 177 169 161 168 170 172 172 174 161 147 152 163 158 178
268 272 279 276 296 297 299 87 86 102 103 104 115 127 131 128 124 124 127 128 128 136 149 160 162 153 158 167 159 159 154 178 178 175 189 188 180 173 168 169 170 163 159 161 164 176 177 180 185